SENTINEL-2B (42063 NORAD) Tracking and Keplerian Element Data

This shows tracking and keplerian element data for the satellite.

Feedback or suggestion? Click here.




ElementValue
Catalog42063
NameSENTINEL-2B
Epoch Orbit8848
Epoch Day319.78789975
Epoch Year2018
RAAN32.3119
Inclination98.5675
Eccentricity0.0001232
Argument of Perigee86.3292
Mean Anonmoly273.8031
Mean Motion14.30818924
Decay Rate3.2E-07
L11 42063U 17013A 18319.78789975 .00000032 00000-0 28937-4 0 9997
L22 42063 98.5675 32.3119 0001232 86.3292 273.8031 14.30818924 88486

Live tracking and technical data element details for SENTINEL-2B (NORAD 42063). SENTINEL-2B can be tracked NOW for your location showing map with azimuth and elevation plus other details from your city location.

Track the satellite on the map from your city or location and see movement details for azimuth, elevation, latitude, longitude, range, height, and movement on the map or in text.







IsCatalogInMostPopularTable: catalog: 42063, numindb: 145
Update: records affected: 1



GetName: 42063 SENTINEL-2B

Hit Count: updated at: Fri, 16 Nov 2018 10:30:25 GMT